Bookmark and Share
Track history (hours):
 

BBC Congo

Last reported at 2014-Apr-16 09:25 UTC. Time now 2014-Apr-16 10:32 UTC.
Position N 51°17' E 004°23'.

Length 144 m; draft 7.1 m.

Type: Ship. MMSI: 305466000.

NotesDate/timePositionNaut miles runAvg speedWind from/ knotsBaromVisibWave heightAir tempDewpointWater temp
2014-Apr-16 09:25N 51°17' E 004°23'0 0.0
2014-Apr-16 08:31N 51°17' E 004°23'0 0.0
2014-Apr-16 07:31N 51°17' E 004°23'0 0.0
2014-Apr-16 06:31N 51°17' E 004°23'0 0.0
2014-Apr-16 05:31N 51°17' E 004°23'0 0.0
2014-Apr-16 04:31N 51°17' E 004°23'0 0.0
2014-Apr-16 03:28N 51°17' E 004°23'0 0.0
2014-Apr-16 02:28N 51°17' E 004°23'0 0.0
2014-Apr-16 01:26N 51°17' E 004°23'2 1.9
2014-Apr-16 00:34N 51°17' E 004°20'3 3.3
2014-Apr-15 23:34N 51°19' E 004°16'9 9.1
2014-Apr-15 22:34N 51°23' E 004°03'9 8.9
2014-Apr-15 21:34N 51°21' E 003°49'1110.5
2014-Apr-15 20:33N 51°26' E 003°34'10 9.8
2014-Apr-15 19:33N 51°34' E 003°25'1010.0
2014-Apr-15 18:32N 51°42' E 003°15'1010.3
2014-Apr-15 17:33N 51°52' E 003°16'1414.1
2014-Apr-15 16:32N 52°06' E 003°21'1613.4
2014-Apr-15 15:21N 52°21' E 003°27'1113.0
2014-Apr-15 14:31N 52°32' E 003°34'13 6.7
2014-Apr-15 12:32N 52°44' E 003°41'1414.4
2014-Apr-15 11:34N 52°55' E 003°56'1515.4
2014-Apr-15 10:33N 53°06' E 004°14'3015.3
2014-Apr-15 08:34N 53°33' E 004°37'23414.6
2014-Apr-14 16:32N 56°55' E 008°04'7712.9
2014-Apr-14 10:32N 57°42' E 009°57'1212.8
2014-Apr-14 09:33N 57°47' E 010°19'1312.8
2014-Apr-14 08:33N 57°47' E 010°43'1312.8
2014-Apr-14 07:33N 57°34' E 010°45'17713.3
2014-Apr-13 18:14N 54°38' E 011°07'811.6
2014-Apr-13 17:33N 54°34' E 011°19'1211.8
2014-Apr-13 16:33N 54°29' E 011°37'1312.7
2014-Apr-13 15:34N 54°22' E 011°56'1211.7
2014-Apr-13 14:34N 54°11' E 012°05'2 1.0
2014-Apr-13 12:30N 54°09' E 012°06'0 0.0
2014-Apr-13 11:24N 54°09' E 012°06'0 0.0
2014-Apr-13 10:30N 54°09' E 012°06'0 0.0
2014-Apr-13 09:30N 54°09' E 012°06'0 0.0
2014-Apr-13 08:30N 54°09' E 012°06'0 0.0
2014-Apr-13 07:30N 54°09' E 012°06'0 0.0
2014-Apr-13 06:33N 54°09' E 012°06'0 0.0
2014-Apr-13 05:24N 54°09' E 012°06'0 0.0
2014-Apr-13 04:33N 54°09' E 012°06'0 0.0
2014-Apr-13 03:30N 54°09' E 012°06'0 0.0
2014-Apr-13 02:30N 54°09' E 012°06'0 0.0
2014-Apr-13 01:30N 54°09' E 012°06'0 0.0
2014-Apr-13 00:21N 54°09' E 012°06'0 0.0
2014-Apr-12 23:27N 54°09' E 012°06'0 0.0
2014-Apr-12 22:30N 54°09' E 012°06'0 0.0
2014-Apr-12 21:33N 54°09' E 012°06'0 0.0
2014-Apr-12 20:33N 54°09' E 012°06'0 0.0
2014-Apr-12 19:30N 54°09' E 012°06'0 0.0
2014-Apr-12 18:30N 54°09' E 012°06'0 0.0
2014-Apr-12 17:33N 54°09' E 012°06'0 0.0
2014-Apr-12 16:30N 54°09' E 012°06'0 0.0
2014-Apr-12 15:27N 54°09' E 012°06'0 0.0
2014-Apr-12 14:30N 54°09' E 012°06'0 0.0
2014-Apr-12 13:30N 54°09' E 012°06'0 0.0
2014-Apr-12 12:27N 54°09' E 012°06'0 0.0
2014-Apr-12 11:33N 54°09' E 012°06'0 0.0
2014-Apr-12 10:30N 54°09' E 012°06'0 0.0
2014-Apr-12 09:30N 54°09' E 012°06'0 0.0
2014-Apr-12 08:27N 54°09' E 012°06'0 0.0
2014-Apr-12 07:30N 54°09' E 012°06'0 0.0
2014-Apr-12 06:12N 54°09' E 012°06'0 0.0
2014-Apr-12 05:18N 54°09' E 012°06'0 0.0
2014-Apr-12 04:33N 54°09' E 012°06'0 0.0
2014-Apr-12 03:27N 54°09' E 012°06'0 0.0
2014-Apr-12 02:33N 54°09' E 012°06'0 0.0
2014-Apr-12 01:33N 54°09' E 012°06'0 0.0
2014-Apr-12 00:33N 54°09' E 012°06'0 0.0
2014-Apr-11 23:30N 54°09' E 012°06'0 0.0
2014-Apr-11 22:33N 54°09' E 012°06'0 0.0
2014-Apr-11 21:27N 54°09' E 012°06'0 0.0
2014-Apr-11 20:27N 54°09' E 012°06'0 0.0
2014-Apr-11 19:30N 54°09' E 012°06'0 0.0
2014-Apr-11 18:33N 54°09' E 012°06'0 0.0
2014-Apr-11 17:27N 54°09' E 012°06'0 0.0
2014-Apr-11 16:24N 54°09' E 012°06'0 0.0
2014-Apr-11 15:33N 54°09' E 012°06'0 0.0
2014-Apr-11 14:33N 54°09' E 012°06'0 0.0
2014-Apr-11 13:30N 54°09' E 012°06'0 0.0
2014-Apr-11 12:33N 54°09' E 012°06'0 0.0
2014-Apr-11 11:30N 54°09' E 012°06'0 0.0
2014-Apr-11 10:24N 54°09' E 012°06'0 0.0
2014-Apr-11 09:30N 54°09' E 012°06'0 0.0
2014-Apr-11 08:33N 54°09' E 012°06'0 0.0
2014-Apr-11 07:33N 54°09' E 012°06'0 0.0
2014-Apr-11 06:30N 54°09' E 012°06'0 0.0
2014-Apr-11 05:33N 54°09' E 012°06'0 0.0
2014-Apr-11 04:24N 54°09' E 012°06'0 0.0
2014-Apr-11 03:30N 54°09' E 012°06'0 0.0
2014-Apr-11 02:24N 54°09' E 012°06'0 0.0
2014-Apr-11 01:33N 54°09' E 012°06'0 0.0
2014-Apr-11 00:30N 54°09' E 012°06'0 0.0
2014-Apr-10 23:33N 54°09' E 012°06'0 0.0
2014-Apr-10 22:27N 54°09' E 012°06'0 0.0
2014-Apr-10 21:30N 54°09' E 012°06'0 0.0
2014-Apr-10 20:33N 54°09' E 012°06'0 0.0
2014-Apr-10 19:33N 54°09' E 012°06'0 0.0
2014-Apr-10 18:30N 54°09' E 012°06'0 0.0
2014-Apr-10 17:24N 54°09' E 012°06'0 0.0
2014-Apr-10 16:27N 54°09' E 012°06'0 0.0
2014-Apr-10 15:30N 54°09' E 012°06'0 0.0
2014-Apr-10 14:30N 54°09' E 012°06'0 0.0
2014-Apr-10 13:30N 54°09' E 012°06'0 0.0
2014-Apr-10 12:30N 54°09' E 012°06'0 0.0
2014-Apr-10 11:33N 54°09' E 012°06'0 0.0
2014-Apr-10 10:33N 54°09' E 012°06'0 0.0
2014-Apr-10 09:33N 54°09' E 012°06'0 0.0
2014-Apr-10 08:33N 54°09' E 012°06'0 0.0
2014-Apr-10 07:33N 54°09' E 012°06'0 0.0
2014-Apr-10 06:30N 54°09' E 012°06'0 0.0
2014-Apr-10 05:33N 54°09' E 012°06'0 0.0
2014-Apr-10 04:33N 54°09' E 012°06'0 0.0
2014-Apr-10 03:30N 54°09' E 012°06'0 0.0
2014-Apr-10 02:33N 54°09' E 012°06'0 0.0
2014-Apr-10 01:33N 54°09' E 012°06'0 0.0
2014-Apr-10 00:30N 54°09' E 012°06'0 0.0
2014-Apr-09 23:33N 54°09' E 012°06'0 0.0
2014-Apr-09 22:33N 54°09' E 012°06'0 0.0
2014-Apr-09 21:33N 54°09' E 012°06'0 0.0
2014-Apr-09 20:33N 54°09' E 012°06'0 0.0
2014-Apr-09 19:33N 54°09' E 012°06'0 0.0
2014-Apr-09 18:30N 54°09' E 012°06'0 0.0
2014-Apr-09 17:30N 54°09' E 012°06'0 0.0
2014-Apr-09 16:30N 54°09' E 012°06'0 0.0
2014-Apr-09 15:30N 54°09' E 012°06'0 0.0
2014-Apr-09 14:30N 54°09' E 012°06'0 0.0
2014-Apr-09 13:30N 54°09' E 012°06'0 0.0
2014-Apr-09 12:24N 54°09' E 012°06'0 0.0
2014-Apr-09 11:30N 54°09' E 012°06'0 0.0
2014-Apr-09 10:30N 54°09' E 012°06'0 0.0
2014-Apr-09 09:30N 54°09' E 012°06'0 0.0
2014-Apr-09 08:33N 54°09' E 012°06'0 0.0
2014-Apr-09 07:30N 54°09' E 012°06'0 0.0
2014-Apr-09 06:33N 54°09' E 012°06'0 0.0
2014-Apr-09 05:30N 54°09' E 012°06'0 0.0
2014-Apr-09 04:33N 54°09' E 012°06'0 0.0
2014-Apr-09 03:18N 54°09' E 012°06'0 0.0
2014-Apr-09 02:33N 54°09' E 012°06'0 0.0
2014-Apr-09 01:33N 54°09' E 012°06'0 0.0
2014-Apr-09 00:24N 54°09' E 012°06'0 0.0
2014-Apr-08 23:30N 54°09' E 012°06'0 0.0
2014-Apr-08 22:33N 54°09' E 012°06'0 0.0
2014-Apr-08 21:33N 54°09' E 012°06'0 0.0
2014-Apr-08 20:33N 54°09' E 012°06'0 0.0
2014-Apr-08 19:33N 54°09' E 012°06'0 0.0
2014-Apr-08 18:33N 54°09' E 012°06'0 0.0
2014-Apr-08 17:21N 54°09' E 012°06'0 0.0
2014-Apr-08 16:33N 54°09' E 012°06'0 0.0
2014-Apr-08 15:09N 54°09' E 012°06'0 0.0
2014-Apr-08 14:09N 54°09' E 012°06'0 0.0
2014-Apr-08 13:30N 54°09' E 012°06'0 0.0
2014-Apr-08 12:30N 54°09' E 012°06'0 0.0
2014-Apr-08 11:21N 54°09' E 012°06'0 0.0
2014-Apr-08 10:30N 54°09' E 012°06'0 0.0
2014-Apr-08 09:30N 54°09' E 012°06'0 0.0
2014-Apr-08 08:18N 54°09' E 012°06'0 0.0
2014-Apr-08 07:30N 54°09' E 012°06'0 0.0
2014-Apr-08 06:24N 54°09' E 012°06'0 0.0
2014-Apr-08 05:33N 54°09' E 012°06'5 5.1
2014-Apr-08 04:33N 54°14' E 012°04'1111.4
2014-Apr-08 03:33N 54°22' E 011°50'1313.3
2014-Apr-08 02:33N 54°29' E 011°30'1313.4
2014-Apr-08 01:33N 54°34' E 011°09'53 8.8
2014-Apr-07 19:31N 54°18' E 009°42'11 5.5
2014-Apr-07 17:32N 54°11' E 009°27'6 5.6
2014-Apr-07 16:33N 54°07' E 009°20'6 6.2
2014-Apr-07 15:33N 54°01' E 009°18'6 5.5
2014-Apr-07 14:33N 53°56' E 009°13'4 3.9
2014-Apr-07 13:33N 53°54' E 009°09'2 1.5
2014-Apr-07 12:33N 53°53' E 009°06'1010.4
2014-Apr-07 11:33N 53°49' E 009°22'1414.1
2014-Apr-07 10:33N 53°37' E 009°34'1211.9
2014-Apr-07 09:33N 53°33' E 009°53'4 3.5
2014-Apr-07 08:32N 53°32' E 009°59'0 0.0
2014-Apr-07 07:32N 53°32' E 009°59'0 0.0
2014-Apr-07 06:32N 53°32' E 009°59'0 0.0
2014-Apr-07 05:32N 53°32' E 009°59'0 0.0
2014-Apr-07 04:32N 53°32' E 009°59'0 0.0
2014-Apr-07 03:29N 53°32' E 009°59'0 0.0
2014-Apr-07 02:32N 53°32' E 009°59'0 0.0
2014-Apr-07 01:32N 53°32' E 009°59'0 0.0
2014-Apr-07 00:32N 53°32' E 009°59'0 0.0
2014-Apr-06 23:26N 53°32' E 009°59'0 0.0
2014-Apr-06 22:32N 53°32' E 009°59'0 0.0
2014-Apr-06 21:26N 53°32' E 009°59'0 0.0
2014-Apr-06 20:32N 53°32' E 009°59'0 0.0
2014-Apr-06 19:32N 53°32' E 009°59'0 0.0
2014-Apr-06 18:32N 53°32' E 009°59'5 5.6
2014-Apr-06 17:33N 53°33' E 009°50'1312.7
2014-Apr-06 16:33N 53°39' E 009°31'1514.9
2014-Apr-06 15:34N 53°51' E 009°18'1414.1
2014-Apr-06 14:33N 53°50' E 008°54'1414.0
2014-Apr-06 13:33N 53°58' E 008°34'1515.1
2014-Apr-06 12:33N 53°60' E 008°08'1514.6
2014-Apr-06 11:33N 54°06' E 007°46'1414.1
2014-Apr-06 10:33N 54°17' E 007°32'1413.8
2014-Apr-06 09:33N 54°30' E 007°24'  

Dump ship's entire track history

sailing weather and tide predictions

BBC Congo — V2EL3 — position and weather